FW5198 Weather Reports


Display with metric or nautical units.
time (UTC)temp
F
wind
direction
speed
MPH
gust
MPH
rain 1hr
in
rain 24hr
in
rain mn
in
humidity
%
barometer
mb
20260505194542 72 39 8.0 19.0 0.00 0.00 0.00 62 1009.9
20260505193058 72 355 7.0 16.0 0.00 0.00 0.00 61 1010.1
20260505191547 72 359 6.0 14.0 0.00 0.00 0.00 64 1010.0
20260505190052 71 56 10.0 19.0 0.00 0.00 0.00 64 1010.5
20260505184539 71 13 8.0 20.0 0.00 0.00 0.00 64 1010.5
20260505183045 70 6 10.0 22.0 0.00 0.00 0.00 65 1010.6
20260505181549 68 39 7.0 12.0 0.00 0.00 0.00 69 1010.9
20260505180045 68 19 6.0 12.0 0.00 0.00 0.00 70 1010.8
20260505174541 67 314 6.0 12.0 0.00 0.00 0.00 71 1010.6
20260505173039 66 335 8.0 13.0 0.00 0.00 0.00 70 1010.9
20260505171539 67 53 5.0 15.0 0.00 0.00 0.00 71 1010.8
20260505170043 65 42 4.0 12.0 0.00 0.00 0.00 77 1011.1
20260505164549 63 33 3.0 11.0 0.00 0.00 0.00 80 1010.9
20260505163041 63 4 2.0 7.0 0.00 0.00 0.00 82 1012.0
20260505161544 63 32 3.0 7.0 0.00 0.00 0.00 79 1012.2
20260505153045 64 32 5.0 11.0 0.00 0.00 0.00 74 1012.6
20260505151543 64 25 5.0 11.0 0.00 0.00 0.00 74 1012.6
20260505124550 59 352 4.0 7.0 0.00 0.00 0.00 79 1011.7
20260505123040 59 34 2.0 6.0 0.00 0.00 0.00 79 1011.8
20260505121542 58 26 2.0 5.0 0.00 0.00 0.00 80 1011.7
20260505120043 58 360 2.0 5.0 0.00 0.00 0.00 81 1011.7
20260505114535 57 0 1.0 4.0 0.00 0.00 0.00 82 1011.6
20260505113044 56 40 0.0 2.0 0.00 0.00 0.00 83 1011.3
20260505111540 56 30 0.0 1.0 0.00 0.00 0.00 84 1011.2
20260505101548 54 0 0.0 1.0 0.00 0.00 0.00 89 1011.0
20260505100042 54 0 0.0 0.0 0.00 0.00 0.00 88 1010.9
20260505094541 54 0 0.0 1.0 0.00 0.00 0.00 88 1010.8
20260505093044 54 0 0.0 1.0 0.00 0.00 0.00 87 1010.9
20260505091539 54 0 0.0 1.0 0.00 0.00 0.00 87 1010.9
20260505090046 55 0 0.0 0.0 0.00 0.00 0.00 84 1010.9
20260505084551 55 0 0.0 0.0 0.00 0.00 0.00 83 1010.6
20260505083054 55 0 0.0 0.0 0.00 0.00 0.00 83 1010.6
20260505081537 55 0 0.0 1.0 0.00 0.00 0.00 84 1010.5
20260505080046 56 30 0.0 1.0 0.00 0.00 0.00 82 1010.3
20260505074535 58 0 0.0 0.0 0.00 0.00 0.00 78 1010.6
20260505073045 58 0 0.0 1.0 0.00 0.00 0.00 77 1010.3
20260505071547 58 0 0.0 3.0 0.00 0.00 0.00 77 1010.7
20260505070040 57 34 0.0 2.0 0.00 0.00 0.00 79 1010.8
20260505064540 57 0 0.0 1.0 0.00 0.00 0.00 80 1011.0
20260505063042 56 0 0.0 1.0 0.00 0.00 0.00 81 1011.1
20260505061543 57 34 0.0 1.0 0.00 0.00 0.00 81 1011.3
20260505060045 58 34 0.0 1.0 0.00 0.00 0.00 79 1011.5
20260505054546 58 0 0.0 0.0 0.00 0.00 0.00 77 1011.6
20260505053047 60 0 0.0 1.0 0.00 0.00 0.00 76 1011.6
20260505051543 61 34 0.0 1.0 0.00 0.00 0.00 71 1011.6
20260505041539 64 28 0.0 2.0 0.00 0.00 0.00 63 1011.2
20260505040040 65 1 1.0 4.0 0.00 0.00 0.00 62 1011.1
20260505034542 65 37 1.0 3.0 0.00 0.00 0.00 61 1011.2
20260505033043 66 35 1.0 4.0 0.00 0.00 0.00 60 1011.2
20260505031552 66 53 3.0 8.0 0.00 0.00 0.00 59 1010.9
20260505030044 67 39 2.0 5.0 0.00 0.00 0.00 58 1010.8
20260505024550 67 4 1.0 5.0 0.00 0.00 0.00 58 1010.9
20260505023047 67 36 1.0 4.0 0.00 0.00 0.00 56 1010.7
20260505021540 68 23 1.0 4.0 0.00 0.00 0.00 55 1010.5
20260505020041 69 36 1.0 4.0 0.00 0.00 0.00 54 1010.4
20260505014601 69 18 2.0 4.0 0.00 0.00 0.00 53 1010.5
20260505013043 70 37 1.0 4.0 0.00 0.00 0.00 53 1010.6
20260505011550 70 36 1.0 4.0 0.00 0.00 0.00 52 1010.6
20260505010040 71 46 2.0 7.0 0.00 0.00 0.00 51 1010.6
20260505004537 72 35 1.0 3.0 0.00 0.00 0.00 50 1010.6
20260505003043 73 35 1.0 7.0 0.00 0.00 0.00 48 1010.6
20260505001545 74 26 3.0 8.0 0.00 0.00 0.00 46 1010.6
20260505000052 75 79 4.0 10.0 0.00 0.00 0.00 46 1010.7
20260504234542 76 52 4.0 8.0 0.00 0.00 0.00 44 1010.6
20260504233041 77 79 3.0 10.0 0.00 0.00 0.00 43 1010.6
20260504231541 78 56 4.0 11.0 0.00 0.00 0.00 42 1010.8
20260504230045 78 46 7.0 16.0 0.00 0.00 0.00 42 1010.7
20260504224545 78 79 6.0 12.0 0.00 0.00 0.00 43 1010.7
20260504223041 78 36 6.0 15.0 0.00 0.00 0.00 42 1010.7
20260504221539 79 15 6.0 13.0 0.00 0.00 0.00 42 1010.6
20260504220040 79 27 6.0 15.0 0.00 0.00 0.00 42 1010.6
20260504214542 79 53 7.0 22.0 0.00 0.00 0.00 42 1010.3
20260504213042 79 65 5.0 18.0 0.00 0.00 0.00 42 1010.3
20260504211542 79 15 5.0 15.0 0.00 0.00 0.00 42 1010.3
20260504210055 79 17 9.0 19.0 0.00 0.00 0.00 39 1010.6
20260504204553 79 50 9.0 17.0 0.00 0.00 0.00 40 1010.8
20260504203038 79 51 7.0 14.0 0.00 0.00 0.00 42 1010.9
20260504201542 79 56 7.0 16.0 0.00 0.00 0.00 42 1011.1
20260504200043 78 59 7.0 17.0 0.00 0.00 0.00 44 1011.4